Regional Weather Roundup
Issued by NWS

Home | Current Version | Previous Version | Text Only | Print | Product List | Glossary Off
Versions: 1 2 3 4 5 6 7 8 9 10 11 12 13 14 15 16 17 18 19 20 21 22 23 24 25 26 27 28 29 30 31 32 33 34 35 36 37 38 39 40 41 42 43 44 45 46 47 48 49 50

000
ASUS43 KDTX 241510
RWRMI
MICHIGAN HOURLY REGIONAL WEATHER ROUNDUP
NATIONAL WEATHER SERVICE DETROIT/PONTIAC MI
1000 AM EST TUE JAN 24 2017

NOTE: "FAIR" INDICATES FEW OR NO CLOUDS BELOW 12,000 FEET WITH NO
SIGNIFICANT WEATHER AND/OR OBSTRUCTION TO VISIBILITY.

MIZ047>049-052>055-059>063-066>070-074>076-081>083-241600-
SOUTHEAST LOWER MICHIGAN

CITY           SKY/WX    TMP DP  RH WIND       PRES   REMARKS
ADRIAN         CLOUDY    39  38  96 NW8       29.78S WCI  33
ALMA           CLOUDY    37  37  99 W6        29.79S WCI  33
ANN ARBOR      CLOUDY    38  37  97 W9        29.77R WCI  31
BAD AXE        MIX PCPN  35  35 100 NW3       29.76R
CARO           LGT RAIN  36  35  99 W6        29.75S WCI  31
DETROIT CITY   LGT RAIN  40  39  97 NW6       29.76R FOG
DETROIT        CLOUDY    40  37  89 NW8       29.78R FOG     WCI  34
FLINT          LGT RAIN  36  36 100 W8        29.77S VSB 1   WCI  30
GROSSE ILE     CLOUDY    38  38  99 NW5       29.76R FOG     WCI  35
HILLSDALE      CLOUDY    36  36 100 NW15      29.78R FOG     WCI  26
HOWELL         CLOUDY    37  37  97 NW9       29.77S FOG     WCI  31

CITY           SKY/WX    TMP DP  RH WIND       PRES   REMARKS
JACKSON        CLOUDY    39  36  89 NW10      29.77F WCI  32
LAMBERTVILLE   CLOUDY    41  38  90 NW6       29.78S
LANSING        CLOUDY    38  35  89 NW10      29.80R WCI  31
LAPEER         DRIZZLE   36  36 100 NW5       29.75S WCI  32
MASON          CLOUDY    37  37 100 NW6       29.78S FOG     WCI  33
MONROE         CLOUDY    39  39  98 NW8       29.77R WCI  34
MT. CLEMENS    LGT RAIN  39  39 100 NW5       29.74R FOG
PONTIAC        DRIZZLE   36  34  92 NW7       29.73S WCI  30
PORT HOPE        N/A     36  34  92 CALM      29.74R
PORT HURON     FOG       36  36 100 CALM      29.76R VSB 1/2
TRI CITIES     CLOUDY    37  37 100 NW8       29.78S WCI  31
MIDLAND        CLOUDY    38  37  97 NW5       29.77S FOG     WCI  34
TROY           LGT RAIN  39  36  91 NW6       29.77S WCI  34
SAGINAW HB     CLOUDY    37  34  87 NW6       29.77S WCI  33
$$
MIZ043>046-050>051-056>058-064>065-071>073-077>080-241600-
SOUTHWEST LOWER MICHIGAN

CITY           SKY/WX    TMP DP  RH WIND       PRES   REMARKS
BATTLE CREEK   CLOUDY    38  37  97 W8        29.82R WCI  32
BENTON HARBOR  CLOUDY    39  35  86 W9        29.88R WCI  33
BIG RAPIDS     CLOUDY    35  34  96 NW5       29.79S WCI  31
COLDWATER      CLOUDY    38  38  99 W7        29.82R WCI  33
FREMONT        CLOUDY    36  35  95 NW6       29.82R WCI  31
HOLLAND        CLOUDY    38  35  89 W7        29.85R WCI  33
GRAND RAPIDS   CLOUDY    37  33  85 NW12      29.81R WCI  29
IONIA          CLOUDY    37  36  98 NW9       29.79S WCI  30
KALAMAZOO      CLOUDY    39  34  82 W10       29.83R WCI  32
LUDINGTON      CLOUDY    37  37  97 NW5       29.82R WCI  34
MARSHALL       CLOUDY    38  37  97 NW7       29.80R WCI  33
MOUNT PLEASANT CLOUDY    37  37 100 W7        29.78S WCI  31
MUSKEGON       CLOUDY    39  35  86 NW8       29.84R WCI  33
SOUTH HAVEN    CLOUDY    38  37  94 W7        29.86R FOG     WCI  33
$$
MIZ016>042-241600-
NORTHERN LOWER MICHIGAN

CITY           SKY/WX    TMP DP  RH WIND       PRES   REMARKS
ALPENA         LGT RAIN  35  34  96 N3        29.78R FOG
BEAVER ISLAND  FOG       34  34 100 N3        29.80R VSB 1/4
BELLAIRE       CLOUDY    35  35  99 CALM      29.80R FOG
CADILLAC       CLOUDY    35  33  93 NW5       29.77R WCI  31
CHARLEVOIX     CLOUDY    35  35 100 NW5       29.81S FOG     WCI  31
FRANKFORT      CLOUDY    37  36  94 NW6       29.81S WCI  33
GAYLORD        FOG       35  32  88 W5        29.75R VSB 1   WCI  31
GRAYLING       FOG       35  35  99 W6        29.77R VSB 1/4 WCI  30
HARBOR SPRINGS FOG       35  35  99 CALM      29.78R VSB 3/4
HOUGHTON LAKE  CLOUDY    35  34  96 NW8       29.77R FOG     WCI  29
MANISTEE       CLOUDY    37  35  92 NW8       29.82R WCI  31
OSCODA         MIX PCPN  37  36  97 N5        29.75S WCI  33
PELLSTON       CLOUDY    34  33  96 CALM      29.79R FOG
ROGERS CITY    LGT SNOW  35  34  96 CALM      29.79R
TRAVERSE CITY  CLOUDY    37  35  92 NW5       29.79R FOG     WCI  33
$$
MIZ007>008-015-241600-
EASTERN UPPER MICHIGAN

CITY           SKY/WX    TMP DP  RH WIND       PRES   REMARKS
KINROSS        LGT SNOW  33  32  96 E6        29.79S FOG     WCI  28
MACKINAC ISLAN CLOUDY    32  32 100 E6        29.78R FOG     WCI  27
NEWBERRY       FOG       32  31  97 CALM      29.79R VSB 1/4
S. S. MARIE    LGT SNOW  34  33  96 CALM      29.79S FOG
MUNISING         N/A     35  35 100 NW12      29.81R WCI  27
$$
MIZ004>006-011>014-085-241600-
CENTRAL UPPER MICHIGAN

CITY           SKY/WX    TMP DP  RH WIND       PRES   REMARKS
MANISTIQUE     CLOUDY    33  32  98 N5        29.80R FOG     WCI  28
ESCANABA       CLOUDY    35  35 100 NW6       29.82S WCI  30
SAWYER-GWINN   CLOUDY    32  32 100 N5        29.81R WCI  27
$$
MIZ001>003-009>011-084-241600-
WESTERN UPPER MICHIGAN

CITY           SKY/WX    TMP DP  RH WIND       PRES   REMARKS
IRON MOUNTAIN  CLOUDY    35  31  85 NW7       29.81R WCI  29
HOUGHTON       CLOUDY    34  32  92 NW10      29.82R WCI  26
COPPER HARBOR    N/A     35  34  96 N6        29.83R WCI  30
IRONWOOD       CLOUDY    33  31  92 W6        29.86R WCI  28
$$

ABBREVIATIONS USED IN REMARKS
   TC - TEMPERATURE IN CELSIUS
  WCI - WIND CHILL INDEX
   HX - HEAT INDEX
  VSB - VISIBILITY




USA.gov is the U.S. government's official web portal to all federal, state and local government web resources and services.